Worcester, MA

5:20 PM EST on January 17, 2018 (GMT -0500)
Worcester Regional

Weather History for KORH - December, 2011

Change the Weather History Date:

Thursday, December 1, 2011

  Actual Average Record
Temperature  
Mean Temperature 40 °F 35 °F  
Max Temperature 46 °F 42 °F 65 °F (2006)
Min Temperature 34 °F 28 °F 5 °F (1963)
Degree Days  
Heating Degree Days 25 30  
Month to date heating degree days 25 30  
Since 1 July heating degree days 1038 1432  
Cooling Degree Days 0 0  
Month to date cooling degree days 0 0  
Year to date cooling degree days 638 471  
Moisture  
Dew Point 22 °F    
Average Humidity 54    
Maximum Humidity 75    
Minimum Humidity 33    
Precipitation  
Precipitation 0.00 in 0.13 in 1.22 in (1977)
Month to date precipitation 0.00 0.13  
Year to date precipitation 61.99 44.38  
Sea Level Pressure  
Sea Level Pressure 30.10 in    
Wind  
Wind Speed 11 mph (NW)    
Max Wind Speed 18 mph    
Max Gust Speed 26 mph    
Visibility 10 miles    
Events      
T = Trace of Precipitation, MM = Missing Value Source: NWS Daily Summary

Daily Weather History Graph

Daily Weather History Graph

Search for Another Location

Airport or City:

Trip Planner

Search our weather history database for the weather conditions in past years. The results will help you decide how hot, cold, wet, or windy it might be!

Date:

Astronomy

Dec. 01, 2011 Rise Set
Actual Time 6:56 AM EST 4:16 PM EST
Civil Twilight 6:25 AM EST 4:47 PM EST
Nautical Twilight 5:50 AM EST 5:22 PM EST
Astronomical Twilight 5:16 AM EST 5:56 PM EST
Moon 11:35 AM EST (12/1) 11:17 PM EST (12/1)
Length of Visible Light 10h 22m
Length of Day
9h 19m
Waxing Crescent, 43% of the Moon is Illuminated
Dec 1
Waxing Crescent
Dec 2
First Quarter
Dec 10
Full
Dec 17
Last Quarter
Dec 24
New

Hourly Weather History & Observations

Time (EST) Temp. Windchill Dew Point Humidity Pressure Visibility Wind Dir Wind Speed Gust Speed Precip Events Conditions
12:54 AM 39.0 °F 32.8 °F 28.0 °F 65% 29.87 in 10.0 mi WNW 9.2 mph - N/A   Partly Cloudy
1:54 AM 35.6 °F 29.2 °F 28.4 °F 75% 29.89 in 10.0 mi WNW 8.1 mph - N/A   Clear
2:54 AM 35.1 °F 29.3 °F 28.0 °F 76% 29.93 in 10.0 mi West 6.9 mph - N/A   Clear
3:54 AM 35.1 °F 26.4 °F 28.0 °F 76% 29.94 in 10.0 mi WNW 12.7 mph - N/A   Clear
4:46 AM 35.6 °F 27.5 °F 28.4 °F 75% 29.94 in 10.0 mi NW 11.5 mph - N/A   Mostly Cloudy
4:54 AM 36.0 °F 26.7 °F 28.0 °F 73% 29.97 in 10.0 mi NW 15.0 mph - N/A   Overcast
5:54 AM 36.0 °F 29.6 °F 28.0 °F 73% 30.00 in 10.0 mi NNW 8.1 mph 19.6 mph N/A   Mostly Cloudy
6:14 AM 35.6 °F 26.6 °F 26.6 °F 70% 29.99 in 10.0 mi North 13.8 mph - N/A   Scattered Clouds
6:54 AM 34.0 °F 25.0 °F 25.0 °F 70% 30.03 in 10.0 mi NW 12.7 mph 16.1 mph N/A   Clear
7:54 AM 34.0 °F 25.5 °F 24.1 °F 67% 30.06 in 10.0 mi NNW 11.5 mph 20.7 mph N/A   Clear
8:54 AM 36.0 °F 26.7 °F 24.1 °F 62% 30.10 in 10.0 mi NW 15.0 mph 23.0 mph N/A   Clear
9:54 AM 37.9 °F 30.9 °F 23.0 °F 55% 30.12 in 10.0 mi NNW 10.4 mph - N/A   Clear
10:54 AM 39.9 °F 32.1 °F 21.9 °F 49% 30.11 in 10.0 mi North 13.8 mph 23.0 mph N/A   Clear
11:54 AM 43.0 °F 36.0 °F 21.9 °F 43% 30.10 in 10.0 mi NNW 13.8 mph 18.4 mph N/A   Clear
12:54 PM 44.1 °F 38.1 °F 19.9 °F 38% 30.11 in 10.0 mi NNW 11.5 mph - N/A   Clear
1:54 PM 46.0 °F 42.5 °F 19.9 °F 35% 30.12 in 10.0 mi NNW 6.9 mph 16.1 mph N/A   Clear
2:54 PM 45.0 °F 38.9 °F 18.0 °F 34% 30.14 in 10.0 mi NW 12.7 mph - N/A   Clear
3:54 PM 43.0 °F 37.2 °F 18.0 °F 37% 30.17 in 10.0 mi NW 10.4 mph - N/A   Clear
4:54 PM 41.0 °F 35.8 °F 15.1 °F 35% 30.19 in 10.0 mi NW 8.1 mph - N/A   Clear
5:54 PM 39.0 °F 32.8 °F 14.0 °F 36% 30.21 in 10.0 mi NW 9.2 mph - N/A   Clear
6:54 PM 37.9 °F 30.9 °F 14.0 °F 38% 30.23 in 10.0 mi NW 10.4 mph - N/A   Clear
7:54 PM 37.0 °F 28.5 °F 16.0 °F 42% 30.25 in 10.0 mi NW 13.8 mph - N/A   Clear
8:54 PM 37.0 °F 29.8 °F 16.0 °F 42% 30.26 in 10.0 mi NNW 10.4 mph - N/A   Clear
9:54 PM 37.0 °F 31.0 °F 18.0 °F 46% 30.27 in 10.0 mi NNW 8.1 mph - N/A   Clear
10:54 PM 36.0 °F 29.0 °F 18.0 °F 48% 30.28 in 10.0 mi NNW 9.2 mph - N/A   Clear
11:54 PM 33.8 °F 25.8 °F 19.4 °F 56% 30.25 in 10.0 mi NW 10.4 mph - N/A   Clear